DW6494 Weather Reports


Display with metric or nautical units.
time (UTC)temp
F
wind
direction
speed
MPH
gust
MPH
rain 1hr
in
rain 24hr
in
rain mn
in
humidity
%
barometer
mb
20260906022529 80 122 2.0 2.0 0.00 0.00 0.00 17 1017.0
20260906022032 80 119 5.0 9.0 0.00 0.00 0.00 16 1017.0
20260906021529 80 162 6.0 8.0 0.00 0.00 0.00 15 1017.0
20260906021030 80 215 4.0 4.0 0.00 0.00 0.00 15 1017.0
20260906020529 80 169 4.0 7.0 0.00 0.00 0.00 15 1017.0
20260906020029 81 168 0.0 0.0 0.00 0.00 0.00 16 1017.0
20260906015529 80 137 3.0 4.0 0.00 0.00 0.00 17 1017.0
20260906015029 81 150 0.0 0.0 0.00 0.00 0.00 16 1017.0
20260906014529 82 127 0.0 0.0 0.00 0.00 0.00 16 1017.0
20260906014029 82 163 1.0 4.0 0.00 0.00 0.00 15 1017.0
20260906013529 83 360 0.0 0.0 0.00 0.00 0.00 15 1017.0
20260906013029 83 135 0.0 0.0 0.00 0.00 0.00 16 1017.0
20260906012529 83 164 1.0 3.0 0.00 0.00 0.00 18 1017.0
20260906012030 84 161 0.0 0.0 0.00 0.00 0.00 19 1017.0
20260906011530 84 141 1.0 3.0 0.00 0.00 0.00 19 1017.0
20260906011030 84 218 1.0 3.0 0.00 0.00 0.00 17 1017.0
20260906010530 85 145 2.0 5.0 0.00 0.00 0.00 16 1017.0
20260906010029 85 360 0.0 0.0 0.00 0.00 0.00 16 1017.0
20260906005529 85 109 0.0 1.0 0.00 0.00 0.00 15 1017.0
20260906005029 85 141 3.0 4.0 0.00 0.00 0.00 14 1017.0
20260906004529 85 154 7.0 10.0 0.00 0.00 0.00 13 1017.0
20260906004030 85 146 4.0 7.0 0.00 0.00 0.00 13 1017.0
20260906003529 85 143 8.0 10.0 0.00 0.00 0.00 13 1017.0
20260906003029 85 155 6.0 8.0 0.00 0.00 0.00 14 1017.0
20260906002529 85 154 7.0 9.0 0.00 0.00 0.00 13 1017.0
20260906002031 85 142 13.0 18.0 0.00 0.00 0.00 13 1017.0
20260906001529 85 145 7.0 9.0 0.00 0.00 0.00 13 1017.0
20260906001030 85 140 4.0 6.0 0.00 0.00 0.00 13 1017.0
20260906000529 85 145 9.0 13.0 0.00 0.00 0.00 12 1017.0
20260906000029 85 161 8.0 10.0 0.00 0.00 0.00 13 1017.0
20260905235530 85 114 4.0 7.0 0.00 0.00 0.00 13 1017.0
20260905235028 85 142 4.0 7.0 0.00 0.00 0.00 13 1017.0
20260905234529 85 134 8.0 16.0 0.00 0.00 0.00 13 1017.0
20260905234029 85 153 5.0 7.0 0.00 0.00 0.00 13 1017.0
20260905233529 85 135 1.0 4.0 0.00 0.00 0.00 14 1017.0
20260905233029 85 139 9.0 13.0 0.00 0.00 0.00 12 1017.0
20260905232529 85 136 11.0 18.0 0.00 0.00 0.00 12 1018.0
20260905232029 85 124 10.0 15.0 0.00 0.00 0.00 12 1018.0
20260905231529 85 130 2.0 6.0 0.00 0.00 0.00 14 1018.0
20260905231029 85 156 3.0 6.0 0.00 0.00 0.00 13 1018.0
20260905230529 85 149 6.0 10.0 0.00 0.00 0.00 12 1018.0
20260905230030 85 169 7.0 10.0 0.00 0.00 0.00 11 1018.0
20260905225529 85 139 4.0 9.0 0.00 0.00 0.00 13 1018.0
20260905225029 85 141 5.0 7.0 0.00 0.00 0.00 12 1018.0
20260905224530 85 133 8.0 12.0 0.00 0.00 0.00 12 1018.0
20260905224029 86 136 6.0 9.0 0.00 0.00 0.00 11 1018.0
20260905223529 86 261 3.0 6.0 0.00 0.00 0.00 13 1018.0
20260905223029 86 278 1.0 4.0 0.00 0.00 0.00 12 1018.0
20260905222529 86 135 7.0 11.0 0.00 0.00 0.00 13 1018.0
20260905222029 86 152 11.0 16.0 0.00 0.00 0.00 12 1018.0
20260905221529 86 239 3.0 8.0 0.00 0.00 0.00 14 1018.0
20260905221029 85 105 2.0 5.0 0.00 0.00 0.00 13 1018.0
20260905220529 85 101 3.0 11.0 0.00 0.00 0.00 12 1018.0
20260905220030 85 118 5.0 10.0 0.00 0.00 0.00 13 1018.0
20260905215529 85 144 9.0 13.0 0.00 0.00 0.00 12 1018.0
20260905215030 84 136 12.0 19.0 0.00 0.00 0.00 13 1018.0
20260905214529 84 146 10.0 16.0 0.00 0.00 0.00 13 1018.0
20260905214030 84 144 13.0 18.0 0.00 0.00 0.00 13 1019.0
20260905213529 84 142 11.0 16.0 0.00 0.00 0.00 14 1019.0
20260905213029 84 130 7.0 12.0 0.00 0.00 0.00 16 1019.0
20260905212529 84 154 15.0 21.0 0.00 0.00 0.00 14 1018.0
20260905212029 84 14 1.0 6.0 0.00 0.00 0.00 17 1019.0
20260905211529 83 144 11.0 17.0 0.00 0.00 0.00 16 1019.0
20260905211029 83 122 7.0 14.0 0.00 0.00 0.00 17 1019.0
20260905210529 83 152 6.0 11.0 0.00 0.00 0.00 18 1019.0
20260905210029 83 149 13.0 23.0 0.00 0.00 0.00 18 1019.0
20260905205529 83 161 11.0 17.0 0.00 0.00 0.00 18 1019.0
20260905205029 83 132 13.0 19.0 0.00 0.00 0.00 19 1019.0
20260905204529 83 150 10.0 16.0 0.00 0.00 0.00 18 1019.0
20260905204029 83 143 8.0 14.0 0.00 0.00 0.00 19 1019.0
20260905203529 83 127 8.0 12.0 0.00 0.00 0.00 20 1019.0
20260905203029 82 150 4.0 8.0 0.00 0.00 0.00 21 1019.0
20260905202529 82 187 2.0 7.0 0.00 0.00 0.00 21 1019.0
20260905202029 81 165 5.0 8.0 0.00 0.00 0.00 20 1020.0
20260905201530 81 153 14.0 19.0 0.00 0.00 0.00 20 1019.0
20260905201029 81 147 10.0 16.0 0.00 0.00 0.00 21 1020.0
20260905200529 81 129 6.0 12.0 0.00 0.00 0.00 21 1020.0
20260905200029 81 146 14.0 18.0 0.00 0.00 0.00 19 1020.0
20260905195529 81 145 9.0 15.0 0.00 0.00 0.00 20 1020.0
20260905195029 81 160 15.0 19.0 0.00 0.00 0.00 20 1020.0
20260905194529 81 147 16.0 23.0 0.00 0.00 0.00 20 1020.0
20260905194029 81 148 13.0 18.0 0.00 0.00 0.00 20 1020.0
20260905193529 81 146 7.0 15.0 0.00 0.00 0.00 21 1020.0
20260905193029 80 147 16.0 23.0 0.00 0.00 0.00 18 1020.0
20260905192529 81 146 15.0 24.0 0.00 0.00 0.00 19 1020.0
20260905192030 80 132 3.0 9.0 0.00 0.00 0.00 20 1020.0
20260905191530 80 167 6.0 12.0 0.00 0.00 0.00 20 1020.0
20260905191029 80 154 9.0 15.0 0.00 0.00 0.00 21 1020.0
20260905190530 80 135 13.0 25.0 0.00 0.00 0.00 20 1020.0
20260905190029 80 151 8.0 13.0 0.00 0.00 0.00 22 1020.0
20260905185529 80 149 10.0 13.0 0.00 0.00 0.00 20 1020.0
20260905185029 79 131 6.0 11.0 0.00 0.00 0.00 21 1021.0
20260905184530 79 130 9.0 17.0 0.00 0.00 0.00 21 1021.0
20260905184029 79 136 13.0 20.0 0.00 0.00 0.00 21 1021.0
20260905183529 79 146 11.0 20.0 0.00 0.00 0.00 22 1021.0
20260905183029 79 165 8.0 13.0 0.00 0.00 0.00 22 1021.0
20260905182529 79 142 15.0 18.0 0.00 0.00 0.00 22 1021.0
20260905182029 79 141 13.0 22.0 0.00 0.00 0.00 21 1021.0
20260905181529 78 147 13.0 18.0 0.00 0.00 0.00 22 1021.0
20260905181029 78 152 16.0 25.0 0.00 0.00 0.00 22 1021.0
20260905180529 78 152 10.0 15.0 0.00 0.00 0.00 22 1021.0
20260905180029 78 137 16.0 26.0 0.00 0.00 0.00 22 1021.0
20260905175529 78 145 9.0 16.0 0.00 0.00 0.00 23 1021.0
20260905175030 78 167 7.0 15.0 0.00 0.00 0.00 23 1021.0
20260905174529 78 135 11.0 18.0 0.00 0.00 0.00 24 1021.0
20260905174029 78 136 15.0 22.0 0.00 0.00 0.00 23 1021.0
20260905173530 78 153 11.0 18.0 0.00 0.00 0.00 22 1021.0
20260905173029 77 151 16.0 25.0 0.00 0.00 0.00 22 1021.0
20260905172529 78 153 12.0 16.0 0.00 0.00 0.00 22 1021.0
20260905172031 78 137 9.0 13.0 0.00 0.00 0.00 22 1021.0
20260905171529 78 146 6.0 12.0 0.00 0.00 0.00 23 1021.0
20260905171030 77 145 13.0 19.0 0.00 0.00 0.00 22 1021.0
20260905170529 77 160 11.0 22.0 0.00 0.00 0.00 23 1021.0
20260905170029 77 145 10.0 14.0 0.00 0.00 0.00 24 1021.0
20260905165529 77 149 12.0 16.0 0.00 0.00 0.00 22 1021.0
20260905165029 77 146 9.0 12.0 0.00 0.00 0.00 23 1021.0
20260905164530 77 148 11.0 13.0 0.00 0.00 0.00 23 1021.0
20260905164029 77 150 7.0 10.0 0.00 0.00 0.00 24 1021.0
20260905163529 76 157 9.0 14.0 0.00 0.00 0.00 25 1021.0
20260905163029 76 151 12.0 17.0 0.00 0.00 0.00 26 1021.0
20260905162530 76 146 9.0 14.0 0.00 0.00 0.00 26 1021.0
20260905162029 75 145 12.0 15.0 0.00 0.00 0.00 29 1021.0
20260905161530 75 149 8.0 9.0 0.00 0.00 0.00 33 1021.0
20260905161029 76 161 6.0 11.0 0.00 0.00 0.00 34 1021.0
20260905160531 76 153 7.0 11.0 0.00 0.00 0.00 34 1021.0
20260905160029 76 147 5.0 10.0 0.00 0.00 0.00 36 1021.0
20260905155529 75 143 0.0 1.0 0.00 0.00 0.00 37 1021.0
20260905155029 75 162 5.0 7.0 0.00 0.00 0.00 35 1021.0
20260905154531 75 148 1.0 5.0 0.00 0.00 0.00 35 1021.0
20260905154029 74 157 7.0 11.0 0.00 0.00 0.00 34 1021.0
20260905153529 74 174 2.0 5.0 0.00 0.00 0.00 35 1021.0
20260905153030 73 86 1.0 3.0 0.00 0.00 0.00 35 1021.0
20260905152530 73 90 1.0 3.0 0.00 0.00 0.00 34 1021.0
20260905152029 73 157 5.0 6.0 0.00 0.00 0.00 32 1021.0
20260905151530 73 102 5.0 7.0 0.00 0.00 0.00 32 1021.0
20260905151029 72 163 2.0 4.0 0.00 0.00 0.00 35 1021.0
20260905150530 72 141 4.0 5.0 0.00 0.00 0.00 34 1021.0
20260905150029 71 35 1.0 2.0 0.00 0.00 0.00 34 1021.0
20260905145529 71 97 4.0 5.0 0.00 0.00 0.00 34 1021.0
20260905145029 71 53 3.0 4.0 0.00 0.00 0.00 34 1021.0
20260905144529 71 150 4.0 5.0 0.00 0.00 0.00 32 1021.0
20260905144030 72 158 4.0 6.0 0.00 0.00 0.00 31 1021.0
20260905143529 71 148 4.0 5.0 0.00 0.00 0.00 30 1021.0
20260905143030 71 360 0.0 0.0 0.00 0.00 0.00 31 1021.0
20260905142530 71 360 0.0 0.0 0.00 0.00 0.00 30 1021.0
20260905142030 71 12 0.0 0.0 0.00 0.00 0.00 28 1021.0
20260905141530 70 3 0.0 0.0 0.00 0.00 0.00 30 1021.0
20260905141029 69 352 1.0 4.0 0.00 0.00 0.00 29 1021.0
20260905140530 68 343 5.0 6.0 0.00 0.00 0.00 34 1021.0
20260905140029 67 359 6.0 7.0 0.00 0.00 0.00 33 1021.0
20260905135529 66 357 7.0 7.0 0.00 0.00 0.00 33 1021.0
20260905135029 66 18 1.0 2.0 0.00 0.00 0.00 35 1020.0
20260905134529 66 360 0.0 0.0 0.00 0.00 0.00 35 1020.0
20260905134029 66 94 2.0 3.0 0.00 0.00 0.00 34 1020.0
20260905133529 66 360 0.0 0.0 0.00 0.00 0.00 37 1020.0
20260905133029 66 354 2.0 4.0 0.00 0.00 0.00 33 1020.0
20260905132529 65 359 2.0 4.0 0.00 0.00 0.00 36 1020.0
20260905132029 66 285 0.0 2.0 0.00 0.00 0.00 35 1020.0
20260905131530 66 346 0.0 2.0 0.00 0.00 0.00 33 1020.0
20260905131029 65 141 4.0 6.0 0.00 0.00 0.00 32 1020.0
20260905130529 65 346 8.0 9.0 0.00 0.00 0.00 32 1020.0
20260905130030 65 5 7.0 8.0 0.00 0.00 0.00 32 1020.0
20260905125529 65 347 4.0 5.0 0.00 0.00 0.00 33 1020.0
20260905125029 65 3 1.0 4.0 0.00 0.00 0.00 34 1020.0
20260905124530 66 352 0.0 0.0 0.00 0.00 0.00 34 1020.0
20260905124029 67 345 6.0 7.0 0.00 0.00 0.00 32 1020.0
20260905123529 67 348 5.0 6.0 0.00 0.00 0.00 30 1020.0
20260905123029 68 322 4.0 6.0 0.00 0.00 0.00 28 1020.0
20260905122529 69 262 3.0 5.0 0.00 0.00 0.00 28 1020.0
20260905122029 69 92 2.0 4.0 0.00 0.00 0.00 27 1020.0
20260905121530 70 142 5.0 7.0 0.00 0.00 0.00 27 1020.0
20260905121030 70 18 3.0 5.0 0.00 0.00 0.00 26 1020.0
20260905120530 70 108 5.0 9.0 0.00 0.00 0.00 26 1019.0
20260905120030 70 164 7.0 11.0 0.00 0.00 0.00 25 1019.0
20260905115530 70 160 5.0 6.0 0.00 0.00 0.00 25 1019.0
20260905115029 70 136 7.0 10.0 0.00 0.00 0.00 26 1020.0
20260905114529 70 116 5.0 9.0 0.00 0.00 0.00 27 1020.0
20260905114031 71 148 4.0 7.0 0.00 0.00 0.00 27 1020.0
20260905113529 71 145 8.0 12.0 0.00 0.00 0.00 26 1020.0
20260905113029 71 144 5.0 11.0 0.00 0.00 0.00 26 1020.0
20260905112529 71 145 6.0 9.0 0.00 0.00 0.00 26 1019.0
20260905112030 70 124 4.0 6.0 0.00 0.00 0.00 28 1020.0
20260905111529 70 129 4.0 8.0 0.00 0.00 0.00 28 1020.0
20260905111029 70 157 3.0 5.0 0.00 0.00 0.00 29 1020.0
20260905110529 70 148 8.0 13.0 0.00 0.00 0.00 29 1020.0
20260905110029 70 140 8.0 10.0 0.00 0.00 0.00 29 1019.0
20260905105529 69 134 5.0 8.0 0.00 0.00 0.00 31 1019.0
20260905105029 69 167 2.0 3.0 0.00 0.00 0.00 32 1019.0
20260905104530 69 123 3.0 4.0 0.00 0.00 0.00 33 1020.0
20260905104029 69 355 1.0 4.0 0.00 0.00 0.00 33 1020.0
20260905103529 69 51 3.0 4.0 0.00 0.00 0.00 33 1020.0
20260905103029 69 121 4.0 4.0 0.00 0.00 0.00 33 1020.0
20260905102529 70 123 2.0 4.0 0.00 0.00 0.00 33 1020.0
20260905102029 70 153 6.0 10.0 0.00 0.00 0.00 33 1020.0
20260905101532 69 140 4.0 6.0 0.00 0.00 0.00 34 1020.0
20260905101029 70 117 5.0 9.0 0.00 0.00 0.00 34 1019.0
20260905100529 70 107 6.0 8.0 0.00 0.00 0.00 34 1019.0
20260905100029 70 114 5.0 9.0 0.00 0.00 0.00 34 1019.0
20260905095529 69 146 3.0 5.0 0.00 0.00 0.00 35 1019.0
20260905095029 69 128 4.0 8.0 0.00 0.00 0.00 35 1019.0
20260905094531 69 53 4.0 4.0 0.00 0.00 0.00 36 1019.0
20260905094029 69 130 4.0 7.0 0.00 0.00 0.00 35 1019.0
20260905093529 69 136 5.0 8.0 0.00 0.00 0.00 36 1019.0
20260905093030 69 144 4.0 6.0 0.00 0.00 0.00 36 1019.0
20260905092529 70 124 5.0 5.0 0.00 0.00 0.00 36 1019.0
20260905092029 70 151 4.0 7.0 0.00 0.00 0.00 36 1019.0
20260905091530 70 134 4.0 8.0 0.00 0.00 0.00 36 1019.0
20260905091029 69 138 9.0 11.0 0.00 0.00 0.00 36 1019.0
20260905090529 69 135 6.0 7.0 0.00 0.00 0.00 37 1019.0
20260905090029 69 98 3.0 6.0 0.00 0.00 0.00 37 1019.0
20260905085530 68 109 3.0 4.0 0.00 0.00 0.00 38 1019.0
20260905085030 68 42 4.0 6.0 0.00 0.00 0.00 38 1019.0
20260905084529 68 78 2.0 5.0 0.00 0.00 0.00 38 1019.0
20260905084029 68 69 3.0 4.0 0.00 0.00 0.00 39 1019.0
20260905083529 69 61 4.0 4.0 0.00 0.00 0.00 39 1019.0
20260905083029 70 72 2.0 4.0 0.00 0.00 0.00 39 1019.0
20260905082529 71 18 2.0 4.0 0.00 0.00 0.00 39 1019.0
20260905082029 71 360 0.0 0.0 0.00 0.00 0.00 37 1019.0
20260905081530 72 360 0.0 0.0 0.00 0.00 0.00 36 1019.0
20260905081029 72 146 8.0 12.0 0.00 0.00 0.00 35 1018.0
20260905080529 72 143 7.0 12.0 0.00 0.00 0.00 34 1018.0
20260905080029 72 140 3.0 4.0 0.00 0.00 0.00 34 1018.0
20260905075529 73 153 4.0 6.0 0.00 0.00 0.00 33 1018.0
20260905075029 73 143 1.0 3.0 0.00 0.00 0.00 33 1018.0
20260905074529 73 142 0.0 2.0 0.00 0.00 0.00 33 1018.0
20260905074029 73 161 2.0 4.0 0.00 0.00 0.00 32 1018.0
20260905073529 73 150 4.0 6.0 0.00 0.00 0.00 32 1018.0
20260905073030 73 174 7.0 8.0 0.00 0.00 0.00 32 1018.0
20260905072530 73 180 5.0 7.0 0.00 0.00 0.00 34 1018.0
20260905072029 72 154 8.0 12.0 0.00 0.00 0.00 34 1018.0
20260905071530 72 154 8.0 10.0 0.00 0.00 0.00 36 1018.0
20260905071029 72 113 4.0 6.0 0.00 0.00 0.00 37 1018.0
20260905070529 72 154 4.0 7.0 0.00 0.00 0.00 37 1018.0
20260905070030 72 145 5.0 5.0 0.00 0.00 0.00 37 1018.0
20260905065529 72 136 7.0 8.0 0.00 0.00 0.00 38 1018.0
20260905065030 72 124 5.0 7.0 0.00 0.00 0.00 37 1018.0
20260905064529 72 120 3.0 4.0 0.00 0.00 0.00 38 1018.0
20260905064029 73 104 4.0 4.0 0.00 0.00 0.00 37 1017.0
20260905063529 73 139 2.0 4.0 0.00 0.00 0.00 35 1017.0
20260905063029 73 147 6.0 9.0 0.00 0.00 0.00 34 1017.0
20260905062529 73 169 5.0 5.0 0.00 0.00 0.00 34 1017.0
20260905062029 74 75 1.0 4.0 0.00 0.00 0.00 33 1017.0
20260905061530 74 135 5.0 6.0 0.00 0.00 0.00 31 1017.0
20260905061029 75 72 0.0 1.0 0.00 0.00 0.00 30 1017.0
20260905060529 75 120 3.0 5.0 0.00 0.00 0.00 29 1017.0
20260905060029 75 150 4.0 5.0 0.00 0.00 0.00 29 1017.0
20260905055529 75 155 9.0 12.0 0.00 0.00 0.00 28 1017.0
20260905055029 76 151 5.0 8.0 0.00 0.00 0.00 28 1017.0
20260905054529 76 162 12.0 17.0 0.00 0.00 0.00 27 1017.0
20260905054030 76 119 7.0 10.0 0.00 0.00 0.00 28 1017.0
20260905053529 76 168 4.0 7.0 0.00 0.00 0.00 27 1017.0
20260905053029 76 137 2.0 6.0 0.00 0.00 0.00 27 1017.0
20260905052529 76 154 8.0 12.0 0.00 0.00 0.00 27 1017.0
20260905052029 76 160 5.0 11.0 0.00 0.00 0.00 27 1017.0
20260905051529 76 155 11.0 14.0 0.00 0.00 0.00 28 1017.0
20260905051030 77 155 10.0 13.0 0.00 0.00 0.00 27 1017.0
20260905050529 76 140 7.0 12.0 0.00 0.00 0.00 26 1017.0
20260905050029 76 170 9.0 13.0 0.00 0.00 0.00 28 1017.0
20260905045529 76 147 5.0 11.0 0.00 0.00 0.00 28 1017.0
20260905045029 76 141 5.0 8.0 0.00 0.00 0.00 29 1017.0
20260905044529 76 144 7.0 10.0 0.00 0.00 0.00 29 1017.0
20260905044029 76 144 7.0 9.0 0.00 0.00 0.00 31 1017.0
20260905043529 76 157 6.0 9.0 0.00 0.00 0.00 31 1017.0
20260905043029 76 122 5.0 9.0 0.00 0.00 0.00 32 1016.0
20260905042529 76 136 7.0 10.0 0.00 0.00 0.00 32 1016.0
20260905042030 76 134 4.0 7.0 0.00 0.00 0.00 33 1016.0
20260905041530 75 136 5.0 9.0 0.00 0.00 0.00 34 1016.0
20260905041030 75 148 3.0 7.0 0.00 0.00 0.00 35 1016.0
20260905040530 75 113 4.0 4.0 0.00 0.00 0.00 34 1016.0
20260905040029 75 38 3.0 6.0 0.00 0.00 0.00 34 1016.0
20260905035531 75 105 4.0 5.0 0.00 0.00 0.00 34 1016.0
20260905035029 76 49 4.0 5.0 0.00 0.00 0.00 34 1016.0
20260905034529 76 21 4.0 4.0 0.00 0.00 0.00 33 1016.0
20260905034030 77 18 2.0 6.0 0.00 0.00 0.00 30 1016.0
20260905033529 77 76 3.0 4.0 0.00 0.00 0.00 27 1016.0
20260905033029 77 360 0.0 0.0 0.00 0.00 0.00 27 1016.0
20260905032529 78 360 0.0 0.0 0.00 0.00 0.00 27 1016.0
20260905032029 78 360 0.0 0.0 0.00 0.00 0.00 27 1016.0
20260905031529 78 353 1.0 3.0 0.00 0.00 0.00 27 1016.0
20260905031029 78 301 0.0 0.0 0.00 0.00 0.00 26 1016.0
20260905030529 79 156 5.0 6.0 0.00 0.00 0.00 27 1015.0
20260905030029 79 323 1.0 2.0 0.00 0.00 0.00 28 1015.0
20260905025537 79 146 2.0 6.0 0.00 0.00 0.00 27 1015.0
20260905025029 80 141 4.0 8.0 0.00 0.00 0.00 26 1015.0
20260905024531 80 140 5.0 9.0 0.00 0.00 0.00 25 1015.0
20260905024029 80 162 5.0 7.0 0.00 0.00 0.00 24 1015.0
20260905023529 80 164 6.0 12.0 0.00 0.00 0.00 24 1015.0
20260905023030 80 155 4.0 9.0 0.00 0.00 0.00 24 1015.0